Theta_e
309 313 314 315 314 313 313 311 312 312 312 311 311 312 312 311 310 310 311 309 307 308 310 310 310 310 310 310 309 309 310 309 308 309 309 310 310 311 311 312 313 313 316 315 312 312 312 312 312 312 313 312 313 313 312 313 313 313 313 313 313 313 313 313 313 313 313 313 313 313 313 313 313 313 313 313 313 313 313 313 311 310 308 307 307 306
309 313 314 315 313 312 312 311 310 311 311 311 312 312 311 310 311 310 310 310 307 308 310 310 310 309 309 310 309 309 310 309 310 309 309 310 311 311 311 312 314 314 315 313 311 312 312 312 313 313 313 312 312 312 312 312 312 312 312 312 312 312 312 312 313 313 313 313 313 313 313 313 313 313 313 313 313 313 313 313 312 311 309 308 307 306
311 313 313 312 310 310 312 312 311 311 311 312 311 312 312 311 311 310 310 312 309 308 311 311 310 309 309 310 309 309 310 310 310 310 310 310 310 311 313 313 313 313 313 311 310 312 312 313 313 312 312 312 312 312 311 312 312 312 312 312 312 312 312 312 312 313 313 313 312 312 312 312 312 312 313 313 313 313 313 312 312 311 310 308 307 306
315 316 312 308 308 310 312 311 312 311 311 313 312 311 312 311 312 312 312 315 312 309 310 310 308 310 310 310 310 309 309 309 310 310 310 311 311 312 313 313 312 311 311 310 311 312 313 313 312 312 312 312 312 311 311 311 311 312 312 312 312 313 313 312 313 312 312 312 311 311 311 311 311 312 312 312 312 312 312 312 312 312 311 309 307 306
315 314 309 308 309 310 311 310 311 312 311 313 313 311 312 312 312 311 312 313 312 311 312 310 311 314 313 314 316 312 308 309 309 309 310 311 311 311 312 312 310 310 310 311 312 312 312 313 313 313 313 313 312 312 311 311 311 311 311 311 311 312 312 312 312 312 312 311 311 310 310 310 310 310 311 311 311 311 312 312 312 312 311 310 308 306
313 311 307 311 312 309 311 311 312 313 312 312 314 313 312 312 312 312 312 311 311 316 313 310 313 317 315 317 323 321 317 314 310 310 312 311 310 311 312 311 309 310 311 312 311 312 313 313 314 314 314 314 314 313 312 311 311 311 310 310 311 311 311 311 312 311 311 311 311 311 311 311 311 311 311 312 312 312 312 312 312 311 311 310 309 307
312 309 308 314 315 312 311 312 314 313 311 312 316 316 313 312 313 313 312 311 314 317 312 312 317 316 314 316 319 319 318 318 315 314 312 309 310 312 311 310 309 311 311 311 312 313 313 312 314 314 314 314 314 314 313 312 312 311 311 310 310 310 310 310 311 310 311 311 311 311 311 311 311 312 312 312 312 312 312 312 311 311 311 310 309 308
312 310 309 313 315 315 313 312 314 312 311 315 316 318 318 315 314 313 311 312 314 314 311 313 315 313 315 315 315 316 316 318 316 314 312 308 310 312 310 309 310 311 311 311 312 312 312 312 313 314 314 314 314 314 314 313 312 312 311 311 311 310 310 309 310 309 310 310 310 310 310 310 311 311 311 311 311 311 311 311 311 311 310 310 309 308
310 312 313 314 315 314 314 315 315 311 313 317 312 312 315 314 314 313 313 313 312 312 313 313 312 315 318 314 313 314 316 320 317 316 315 310 311 311 308 309 311 311 311 311 312 312 312 313 313 313 313 314 314 313 314 313 313 312 311 311 311 311 310 309 309 309 309 309 309 309 309 310 310 310 310 309 309 310 310 310 310 310 310 309 309 308
309 311 310 315 317 315 317 317 315 314 314 312 308 310 313 312 312 312 312 315 314 314 314 313 313 316 319 317 316 314 316 322 322 319 316 310 310 311 307 309 310 311 312 311 312 312 313 313 313 313 313 313 313 313 314 314 313 312 311 311 311 311 311 310 309 309 308 308 308 309 309 309 309 309 309 309 309 309 309 309 309 309 309 309 308 308
308 306 306 311 314 312 315 312 307 310 309 306 309 314 314 313 313 313 315 315 316 316 315 315 316 315 317 319 319 319 317 320 320 319 318 313 310 309 307 309 310 310 311 311 312 312 313 313 312 313 313 313 314 313 313 313 313 313 312 311 311 310 310 311 310 309 308 308 308 308 308 308 308 308 308 308 308 308 308 308 308 308 308 308 308 308
307 307 308 310 309 307 311 310 305 304 303 307 316 316 313 315 315 316 318 315 315 319 317 315 314 313 317 317 316 318 316 315 314 314 319 318 312 308 307 309 310 311 311 311 312 311 311 312 312 313 313 313 313 313 312 312 312 312 313 312 311 310 310 310 310 310 310 309 308 308 308 307 307 307 307 308 308 308 308 308 308 308 308 308 308 307
315 314 310 309 308 306 310 312 309 306 305 310 315 313 313 316 316 316 318 316 316 319 314 310 310 311 314 315 313 315 314 313 311 309 312 313 310 309 309 309 310 311 311 311 310 309 309 310 311 311 312 313 313 313 313 312 311 311 311 312 311 310 309 309 309 309 310 309 308 308 307 307 307 306 307 307 307 307 307 307 308 308 308 308 308 308
323 319 311 310 311 308 310 312 313 313 310 309 311 313 314 315 316 318 319 316 317 318 312 308 311 312 314 316 316 315 313 312 309 306 308 308 308 309 308 309 310 310 310 310 308 308 308 308 309 310 311 312 312 313 313 312 311 311 311 311 310 310 309 308 308 308 308 308 308 307 306 306 306 306 306 306 306 306 306 306 306 306 307 307 307 308
324 323 318 317 315 311 309 310 315 317 311 308 312 314 314 316 320 322 321 321 321 320 313 308 313 317 316 317 317 312 309 309 307 306 308 308 307 308 308 309 310 308 308 308 307 307 307 306 307 309 309 310 311 312 313 313 312 311 311 310 309 308 308 307 307 307 307 307 307 306 306 305 305 305 305 305 305 305 305 305 305 305 306 306 307 307
318 322 321 314 310 310 310 309 312 316 312 310 313 314 312 316 321 320 320 323 321 320 315 312 315 317 314 314 314 310 308 307 306 306 307 308 306 306 308 309 307 306 306 306 305 305 305 305 306 307 307 308 309 310 311 312 311 311 310 309 309 308 307 307 306 306 306 306 306 306 305 305 305 304 304 304 304 304 305 305 305 305 305 305 305 306
316 322 319 309 306 309 310 309 309 312 314 312 311 313 313 314 316 317 318 319 318 317 318 317 317 316 314 316 315 313 313 311 309 308 306 307 306 306 307 306 304 304 304 303 303 303 304 304 305 305 305 306 307 307 308 309 310 310 309 308 308 308 307 306 306 305 305 305 305 305 305 305 304 304 304 304 304 304 304 304 304 305 305 305 305 305
319 320 318 312 313 309 304 306 307 307 311 314 314 314 313 311 312 314 316 317 317 317 319 319 319 318 318 319 315 313 316 314 314 312 308 306 306 305 305 303 301 301 302 302 302 302 303 303 303 303 303 304 304 305 306 307 307 308 308 307 306 306 306 306 305 305 305 305 304 304 304 304 304 304 304 304 303 303 303 304 304 304 304 305 305 305
317 317 318 315 315 311 304 307 310 307 306 311 313 312 312 314 314 314 316 317 317 318 319 319 319 318 318 318 315 316 317 313 312 314 311 306 304 302 302 300 298 299 301 301 300 300 300 300 300 300 300 301 302 302 303 304 305 307 307 306 305 305 305 305 305 304 304 304 304 303 302 303 303 303 303 303 303 303 303 304 304 304 304 304 304 304
315 315 318 314 313 312 309 310 315 313 308 306 308 309 311 313 313 314 316 317 317 318 319 320 319 318 317 317 315 316 315 312 310 311 308 303 301 299 297 296 295 296 297 298 297 297 297 297 297 297 297 298 298 299 300 301 302 304 304 305 305 304 304 304 304 304 303 303 303 303 303 302 303 303 303 303 303 303 303 304 304 304 304 303 303 303
315 316 316 315 314 313 313 314 315 317 313 310 311 311 310 311 313 314 314 315 316 316 317 319 318 318 320 320 316 315 314 309 308 307 303 299 297 295 294 294 294 294 294 294 295 294 295 295 295 295 296 296 297 298 298 299 300 300 301 302 303 303 304 304 304 304 304 303 303 303 303 302 303 303 303 302 302 302 303 303 303 303 303 303 302 302
315 316 315 315 316 313 314 317 316 316 316 314 313 314 313 312 314 315 314 314 314 314 315 317 316 318 323 323 318 314 310 304 303 303 299 296 295 294 293 293 293 293 293 294 294 294 294 294 294 295 295 295 296 296 296 297 297 298 298 298 299 300 301 302 302 303 303 303 303 303 303 303 303 303 303 302 301 301 302 302 302 302 302 302 301 301
314 316 315 315 316 315 316 317 314 313 313 313 313 314 313 312 313 314 315 316 316 315 314 316 316 317 321 322 317 311 304 298 298 299 297 295 294 293 293 294 294 295 295 295 295 295 295 296 296 297 298 298 297 297 296 296 296 296 296 296 296 297 297 297 299 301 302 302 303 303 303 303 304 304 303 303 302 302 302 301 301 301 300 300 300 300
312 315 315 314 316 316 316 315 312 310 310 311 313 313 312 312 312 313 314 315 316 316 315 316 317 317 319 319 312 304 298 296 296 295 295 294 293 293 294 294 295 295 295 296 296 296 296 297 297 298 298 298 298 297 296 296 296 296 296 295 295 295 295 295 296 298 299 301 302 302 302 303 303 304 304 304 304 303 303 302 302 301 300 300 300 300
311 314 315 315 316 316 315 314 312 310 312 313 315 315 313 313 313 313 313 313 314 314 314 315 315 315 318 319 309 300 298 297 295 293 293 293 293 293 294 294 295 295 295 296 296 296 296 296 296 296 295 295 295 295 295 295 295 295 295 295 295 294 295 295 295 295 296 298 300 301 302 302 302 303 303 303 303 304 304 304 303 301 300 299 299 299
311 312 313 314 316 316 315 314 312 311 312 313 314 314 313 312 314 313 313 313 314 314 314 315 314 313 315 317 311 304 300 297 294 293 293 292 292 292 293 293 294 294 294 295 295 295 295 295 295 295 294 294 294 293 294 294 294 294 294 294 294 294 294 294 294 295 294 295 296 298 300 301 301 301 301 302 302 302 303 303 303 303 301 299 299 298
310 310 311 312 313 314 313 313 312 310 310 312 313 312 311 311 311 311 312 313 314 314 314 313 314 313 313 314 312 308 302 297 294 293 292 292 292 292 292 292 292 292 292 292 292 293 293 294 294 294 294 294 294 294 294 293 293 293 293 293 293 293 293 293 293 294 294 294 294 294 296 297 299 299 300 301 301 301 301 301 301 301 301 300 299 298
310 310 311 311 311 312 312 311 310 309 309 310 311 311 310 311 310 310 311 311 312 313 313 314 313 312 312 312 310 307 302 297 293 292 292 292 292 292 292 292 291 291 291 290 290 290 291 291 291 291 292 292 293 293 293 293 293 293 292 292 292 292 292 292 292 292 293 293 293 293 293 294 295 296 298 299 299 300 300 300 300 300 300 300 299 297
309 308 309 310 309 309 310 308 307 306 306 307 308 309 309 309 309 309 309 310 310 311 311 311 310 309 310 310 305 300 298 296 293 292 292 292 292 292 291 291 291 291 291 290 290 290 290 290 290 290 290 290 290 291 291 292 292 292 292 292 291 291 291 291 291 291 291 291 292 292 292 292 293 293 294 296 298 299 299 299 300 299 299 298 298 298
305 306 306 306 306 306 306 306 305 304 304 304 304 305 306 306 306 307 307 307 307 307 307 307 306 307 307 305 300 295 294 295 293 292 292 292 292 292 291 291 291 291 291 290 290 290 290 289 289 289 289 289 289 289 289 290 290 290 290 290 290 290 290 290 290 290 291 291 291 291 291 292 292 292 293 293 295 296 297 298 299 299 298 298 297 297
303 305 305 303 303 304 304 304 303 303 302 302 302 302 302 302 303 303 303 304 303 304 304 304 305 307 303 297 295 294 293 294 294 293 293 293 292 292 292 291 290 290 290 290 290 290 289 289 289 289 289 288 288 288 289 289 289 289 289 289 289 289 289 289 289 289 289 289 289 290 290 290 291 292 292 292 293 293 295 296 297 297 298 298 297 296
302 303 303 302 301 302 302 302 301 300 299 299 299 300 300 300 300 301 302 302 302 303 303 303 305 305 299 293 294 294 293 293 294 293 293 293 293 293 292 291 290 290 290 290 290 290 289 289 289 288 288 288 288 288 288 288 288 288 288 288 288 288 288 288 288 288 288 288 288 289 289 289 289 290 290 291 292 292 292 293 294 296 297 297 297 297
300 300 300 300 300 300 301 300 298 298 298 298 298 299 299 298 299 299 300 300 302 303 303 303 303 300 296 294 294 294 294 294 293 292 292 292 292 293 293 292 290 290 290 290 290 289 289 288 288 288 288 287 287 287 287 287 287 287 287 287 287 287 287 287 287 287 287 287 287 287 287 288 288 288 289 289 290 291 291 291 292 293 294 295 296 297
299 299 298 298 299 299 299 298 296 297 296 297 298 300 300 299 299 299 299 301 303 303 300 300 298 295 295 295 295 294 294 293 292 291 291 291 291 292 293 292 290 290 290 290 289 289 289 288 288 288 287 287 287 287 287 287 287 287 287 287 287 287 287 287 287 287 287 287 286 286 286 287 287 287 287 287 288 288 289 290 291 291 292 293 294 295
298 298 297 298 298 297 297 297 296 296 296 297 299 299 298 299 301 300 300 301 300 298 296 296 296 295 295 295 294 294 293 292 291 291 291 291 291 292 293 292 290 289 289 289 289 289 288 288 288 287 287 287 287 287 287 286 286 286 286 286 286 286 286 286 286 286 286 286 286 286 286 286 286 286 286 286 287 287 287 288 289 290 291 291 292 293
297 296 296 297 297 296 297 296 295 295 296 297 298 297 296 297 299 298 299 298 296 295 295 295 295 294 294 293 293 293 292 292 292 291 291 291 291 292 292 291 289 289 289 289 289 289 288 288 288 287 287 287 287 286 286 286 286 286 286 286 286 286 286 286 286 286 286 286 286 286 285 285 285 285 285 285 286 286 286 286 287 288 289 290 291 291
295 296 295 295 296 296 295 295 295 295 295 296 297 296 295 296 297 298 298 298 295 294 294 294 295 295 294 293 292 292 292 292 292 292 291 291 292 292 291 290 289 289 289 288 289 289 288 288 288 287 287 287 286 286 286 286 286 285 285 285 285 285 285 285 285 285 285 285 285 285 285 285 285 285 285 285 285 285 285 285 285 286 286 287 289 290
294 295 295 295 296 296 295 295 295 295 295 297 297 295 293 293 294 295 297 297 295 292 291 293 296 296 294 294 293 292 293 292 292 291 290 291 292 292 291 290 289 289 289 289 289 288 288 288 288 287 287 287 287 286 286 285 285 285 285 285 285 285 285 285 285 285 285 285 285 285 285 285 285 285 285 285 285 285 285 285 285 285 285 286 286 287
293 294 295 295 295 296 296 296 296 296 297 299 298 295 292 292 293 294 295 296 293 289 289 291 294 294 293 293 293 292 293 292 291 290 290 290 291 291 291 290 289 289 289 289 288 288 288 288 288 287 287 287 287 286 286 285 285 285 285 285 285 284 285 284 284 285 285 285 285 285 285 285 285 285 285 285 285 285 285 285 285 285 285 285 285 286
293 293 294 294 295 295 295 295 296 296 297 298 297 294 292 292 293 294 296 295 291 289 289 290 291 292 291 291 292 293 293 292 291 290 290 290 290 290 290 290 290 290 289 289 289 288 288 288 288 288 287 287 287 286 286 285 285 285 285 285 284 284 284 284 283 284 284 284 284 284 284 284 284 284 284 284 284 284 285 285 285 285 285 285 285 285
293 293 293 294 295 295 296 296 296 296 298 299 296 293 291 292 293 294 295 293 290 289 290 290 290 290 291 290 291 292 292 291 290 290 289 290 290 290 290 290 289 290 289 289 289 288 288 288 287 287 287 287 287 286 286 285 285 285 285 284 284 284 284 283 283 283 283 283 284 284 284 284 284 284 284 284 284 284 284 284 284 285 285 285 285 284
292 292 292 293 294 294 295 296 295 294 296 297 295 291 290 292 295 295 293 290 289 289 290 289 289 290 290 290 290 290 290 290 289 289 289 289 290 290 291 290 290 290 290 289 289 288 288 287 287 287 287 286 286 285 285 285 285 285 284 284 284 284 283 283 283 283 283 283 283 283 284 284 284 284 284 284 284 284 284 284 284 284 284 285 285 284
293 293 293 294 294 292 292 293 293 293 293 293 292 291 291 294 296 294 290 289 290 290 289 289 289 289 290 290 289 289 289 289 289 289 289 289 289 290 291 291 290 290 290 290 289 288 287 286 286 286 286 286 285 285 284 284 284 284 283 283 284 283 282 282 282 282 282 283 283 283 283 283 283 284 284 284 284 284 284 284 284 284 284 284 284 284
292 293 293 293 294 293 292 293 295 294 292 291 291 292 293 293 292 291 289 289 290 290 289 289 289 289 289 289 289 289 289 288 288 289 289 289 289 289 290 290 290 290 290 290 289 288 286 286 285 285 285 285 285 284 283 283 282 282 282 283 282 282 281 282 282 282 282 283 283 283 283 283 283 283 283 284 284 284 284 284 284 284 284 284 284 284
293 293 292 292 292 292 292 293 294 292 290 290 291 291 291 291 291 291 290 290 289 290 290 289 289 289 289 289 288 288 288 288 288 288 289 289 289 289 290 290 290 290 289 289 288 286 285 284 284 284 284 285 284 283 283 282 281 281 282 282 281 281 281 281 281 281 282 282 282 283 283 283 283 283 283 283 283 283 283 284 284 284 284 283 284 284
291 291 290 290 291 291 291 291 291 290 290 291 291 290 290 291 291 291 290 290 290 290 290 289 289 289 289 288 288 287 288 288 288 288 288 289 289 290 290 290 289 288 287 287 286 285 284 283 283 283 283 283 283 283 282 281 281 281 281 281 280 279 279 279 279 280 281 281 282 282 282 282 282 283 283 283 283 282 283 283 283 283 283 283 283 283
290 289 289 290 290 290 290 290 290 290 290 290 290 291 291 291 291 291 290 290 290 290 289 289 288 288 288 288 287 287 288 288 288 288 288 288 288 289 288 288 287 286 286 285 284 283 282 281 281 281 281 282 282 282 281 280 280 280 280 279 278 277 276 276 277 278 279 280 281 281 281 281 281 282 282 282 282 282 282 282 282 282 282 282 283 283
290 290 290 290 290 290 290 290 290 290 290 290 290 290 290 290 291 290 290 290 290 289 289 288 288 287 287 287 287 287 287 287 286 286 286 287 287 287 286 285 284 284 284 283 282 281 281 280 280 280 280 280 281 280 280 279 279 279 278 276 275 274 274 275 275 275 277 278 279 279 279 279 279 279 280 280 280 280 281 281 281 281 281 282 282 282
290 290 290 290 290 290 290 290 289 290 290 290 290 290 290 290 290 290 290 289 289 288 288 288 287 287 286 286 286 285 285 285 284 283 283 284 285 284 284 283 283 282 282 282 281 280 280 279 279 278 278 279 279 278 278 278 278 277 275 273 272 271 271 273 273 273 274 276 276 276 277 276 276 276 276 277 278 279 279 280 279 279 280 281 282 281
290 290 290 290 290 289 289 289 289 290 289 289 289 289 289 289 289 289 289 288 288 287 287 287 287 286 285 285 284 284 283 283 283 282 282 283 283 282 282 281 281 281 281 280 280 279 279 278 277 276 275 276 276 275 275 276 276 276 273 270 269 269 269 270 270 270 272 273 273 273 273 273 273 273 273 273 274 275 277 279 279 278 278 280 281 281
290 290 290 290 290 290 290 290 290 289 289 289 289 289 288 288 288 288 287 287 287 286 285 285 285 284 284 283 282 282 282 282 281 281 281 281 281 280 280 279 279 279 279 278 278 277 276 275 274 272 272 273 273 272 272 273 273 273 270 268 267 267 267 267 267 267 269 270 270 270 270 270 270 270 271 271 272 272 273 275 277 278 278 278 279 279
Wind_Speed
8 4 3 6 9 11 11 11 13 9 3 2 2 4 6 6 8 8 10 9 2 5 9 10 19 19 15 13 13 24 28 23 25 30 32 35 38 38 36 41 44 44 44 39 33 31 29 30 29 29 28 26 26 25 24 24 25 26 27 30 31 32 33 34 35 37 40 42 45 47 48 49 50 51 52 52 52 52 51 51 51 52 51 50 49 47
5 5 7 11 12 8 7 6 6 6 5 4 5 6 6 5 10 10 9 10 1 2 5 6 16 19 15 14 14 21 21 21 26 22 24 32 36 38 38 42 42 40 39 31 26 28 29 28 27 26 25 23 23 21 21 21 20 21 23 26 28 29 31 32 34 36 39 41 43 45 45 46 48 50 51 51 52 52 51 52 52 53 52 51 50 49
2 4 10 15 9 1 2 3 2 4 5 6 4 5 6 3 8 9 6 7 2 2 6 7 15 16 14 17 18 20 19 24 29 22 24 32 34 39 39 37 36 34 33 28 27 29 27 25 23 21 21 20 19 19 20 20 19 19 20 22 25 26 28 30 32 34 36 38 40 42 43 44 46 48 50 51 51 51 52 53 54 54 53 53 52 51
4 5 12 16 9 3 3 2 5 2 4 6 4 4 7 3 4 6 4 5 3 3 6 10 16 13 12 15 15 17 19 24 31 29 29 34 37 40 38 32 30 28 29 29 28 26 24 23 23 24 24 22 19 17 17 17 17 18 18 19 21 23 24 27 29 31 33 35 38 40 42 43 45 46 47 48 49 51 53 54 54 54 54 54 54 53
7 4 5 6 6 8 7 3 2 4 6 6 6 5 9 8 8 9 5 6 6 4 4 7 12 10 4 6 5 7 9 15 24 26 29 35 33 33 34 29 22 21 24 26 23 23 25 26 29 30 29 29 26 20 14 14 15 16 17 18 19 21 23 25 27 29 32 34 37 39 41 43 45 46 46 47 49 51 53 55 54 54 55 55 55 54
8 6 3 3 4 6 6 5 5 7 7 5 5 10 14 13 10 11 8 7 5 4 3 5 8 7 1 1 4 4 3 6 12 16 22 22 14 17 23 18 15 17 18 17 19 25 29 31 34 33 32 32 31 28 21 14 14 16 17 18 19 22 24 25 27 29 31 33 35 37 39 41 43 45 46 47 48 49 50 51 52 53 54 55 55 55
4 5 2 3 4 6 5 6 6 8 5 6 5 11 13 11 9 10 7 3 1 3 2 3 1 8 4 1 6 4 2 7 11 12 13 11 13 16 16 13 14 15 16 17 21 25 28 32 35 34 34 33 32 32 29 22 15 15 16 18 19 21 23 25 28 30 32 34 35 37 38 39 40 41 42 43 45 45 45 46 47 49 52 54 55 55
2 1 3 5 5 6 5 6 7 10 5 6 5 7 9 8 8 6 4 3 4 3 3 1 4 6 9 4 4 2 4 9 13 11 9 10 17 20 11 12 15 17 18 20 23 26 28 33 37 35 35 34 32 31 31 29 23 17 15 17 19 20 23 25 28 30 32 34 35 36 36 37 38 38 39 40 41 42 43 44 45 46 49 51 53 54
3 2 2 5 5 3 6 5 7 12 6 6 3 5 5 5 4 4 4 4 2 3 4 2 4 3 9 4 2 1 4 8 11 10 10 9 15 18 8 13 18 19 20 23 27 29 32 35 35 34 33 33 31 30 29 30 29 24 18 16 17 19 22 24 27 29 31 34 35 35 36 36 36 37 38 39 40 41 41 43 44 45 46 48 51 53
1 2 5 7 5 5 7 4 8 13 7 4 5 6 4 3 3 3 3 3 2 3 4 4 4 3 10 5 3 2 2 5 7 7 8 8 7 8 9 13 17 18 21 27 29 31 33 33 32 31 32 31 32 31 28 28 29 28 24 19 17 16 18 21 24 26 28 30 32 34 35 36 36 36 37 38 39 40 41 42 43 44 45 46 48 51
3 2 2 5 6 6 4 1 3 8 5 5 7 5 5 4 4 3 1 3 1 5 5 9 10 5 6 4 4 3 3 5 4 4 6 8 5 10 12 13 15 18 23 28 30 30 29 29 29 30 31 32 32 32 31 29 28 28 27 24 20 17 16 18 19 21 23 26 29 32 34 35 36 37 37 37 37 38 39 40 42 42 43 44 45 48
1 3 1 5 9 5 5 3 2 1 3 4 4 3 3 3 3 4 4 3 1 6 5 8 10 8 7 5 0 4 6 5 3 3 5 9 12 7 11 15 17 20 25 30 30 29 27 27 29 31 32 32 32 33 34 32 30 29 27 25 22 20 17 16 17 18 19 22 25 28 31 33 35 36 37 37 37 37 37 37 39 40 41 42 43 46
1 5 3 2 6 7 5 1 2 3 2 3 3 3 0 3 3 3 3 0 3 7 4 2 3 5 9 6 4 10 13 8 5 7 9 9 16 16 11 15 17 22 27 28 28 26 26 27 29 31 31 31 31 32 32 32 31 30 29 26 22 19 17 15 15 17 19 21 23 25 28 30 32 34 36 37 37 37 37 37 38 38 39 39 41 42
3 5 2 1 4 8 9 4 2 1 3 5 4 4 3 2 2 3 3 2 4 5 4 2 2 4 7 5 7 13 13 9 2 6 9 8 13 12 10 15 19 24 25 25 24 23 25 27 29 29 28 29 30 31 31 32 31 30 30 28 24 19 16 15 14 15 17 19 21 23 26 28 31 33 34 36 37 37 38 38 38 38 37 37 37 38
3 7 4 5 2 7 10 7 4 4 4 5 3 3 3 3 4 4 3 4 4 3 3 2 2 4 4 3 5 9 9 10 9 8 9 10 12 4 11 17 21 23 23 22 22 22 25 26 27 27 28 28 28 29 30 30 30 30 30 30 28 23 18 15 13 13 15 17 19 21 24 27 29 31 33 35 35 36 37 38 38 38 37 36 35 35
3 8 6 4 2 9 8 4 5 5 2 3 3 3 3 3 4 3 3 4 2 2 3 2 3 5 4 6 10 9 8 10 10 6 4 5 3 8 15 20 22 23 23 21 21 24 25 25 26 27 28 28 27 28 28 29 30 31 30 29 28 26 22 18 15 14 14 15 18 19 21 24 27 29 31 33 35 36 36 37 37 38 37 37 36 35
2 6 4 1 0 6 8 5 4 4 3 1 2 3 4 3 4 2 3 1 2 3 4 3 5 7 6 10 9 2 2 4 6 5 4 7 12 16 19 24 24 24 24 22 23 24 25 26 27 27 28 28 29 29 28 28 29 30 30 29 28 26 23 20 17 15 14 15 16 18 20 22 25 27 29 31 33 34 36 36 37 37 37 37 36 36
4 6 4 4 3 5 6 4 1 2 5 4 3 5 2 2 2 1 1 1 1 6 5 3 8 9 6 7 5 4 3 3 6 6 5 8 15 19 22 25 26 26 25 24 25 25 26 27 27 27 28 28 28 27 26 26 26 27 29 30 29 28 26 23 19 16 15 15 15 17 19 21 22 25 27 29 31 33 34 36 36 37 37 37 36 36
3 5 6 4 6 4 3 2 2 2 4 4 2 2 2 2 3 1 2 2 3 6 4 4 9 8 6 7 8 7 6 1 3 6 8 11 16 20 22 24 26 28 28 27 28 28 28 29 29 29 29 28 27 26 25 24 23 23 25 28 29 28 27 26 24 20 18 16 16 15 15 17 19 21 24 27 29 31 33 34 35 37 38 37 37 38
2 4 5 0 2 1 3 1 4 3 2 1 1 2 1 3 3 2 2 2 3 6 4 5 7 6 5 8 11 11 5 1 4 7 9 11 15 19 22 23 25 27 29 28 28 29 29 30 31 31 31 31 30 28 27 25 25 24 23 24 25 26 26 26 25 24 22 19 17 15 12 12 15 17 20 24 27 30 31 32 33 35 36 37 38 39
1 4 6 1 2 1 2 4 6 7 4 2 1 3 2 2 1 2 2 2 4 7 7 7 8 6 5 5 7 6 3 6 7 7 7 10 15 18 21 22 22 25 26 26 27 29 29 30 31 31 32 32 31 30 29 28 27 26 25 24 24 24 25 25 25 25 25 23 22 19 15 12 12 14 17 20 23 26 29 30 32 33 34 36 38 39
1 3 6 4 3 4 6 6 6 8 6 5 5 5 6 5 3 4 6 5 5 6 6 8 10 7 3 4 6 4 6 7 7 8 7 11 15 17 20 23 23 24 26 26 28 29 30 31 32 32 32 32 33 33 33 32 31 29 28 27 26 25 25 25 25 25 25 25 24 23 21 18 15 15 16 18 21 24 26 28 30 32 34 36 37 38
3 1 3 6 6 7 9 6 4 5 3 2 3 4 5 5 5 6 8 5 4 5 4 7 9 5 3 6 8 6 8 9 11 12 9 11 16 18 21 23 24 25 26 26 26 27 29 30 30 30 30 30 32 33 34 34 33 32 31 30 29 28 27 26 26 25 25 25 25 25 23 22 20 19 19 20 20 22 23 25 27 28 31 34 35 36
3 2 3 6 5 5 8 7 0 3 1 2 3 3 4 4 5 7 6 3 5 6 5 8 9 3 3 5 3 9 11 11 15 15 12 13 18 20 22 23 24 24 25 25 26 26 27 27 28 29 29 30 31 32 33 33 33 32 32 31 31 30 29 29 28 27 26 26 25 25 25 23 22 21 21 22 22 22 22 23 23 24 26 28 30 33
1 1 2 4 4 3 5 6 3 2 0 2 4 4 4 5 7 6 4 2 4 7 9 11 9 4 1 1 7 11 9 9 11 13 14 15 17 20 22 23 23 23 24 25 25 26 27 27 28 29 30 31 31 32 32 32 32 32 31 31 32 32 31 30 30 29 29 28 27 26 26 25 25 24 23 22 23 23 24 24 23 23 23 25 27 29
3 2 1 2 5 5 5 5 2 0 1 1 2 3 2 4 6 6 5 5 5 8 10 10 9 6 5 3 5 7 6 6 6 9 13 14 15 17 19 20 22 23 24 24 25 25 26 26 27 28 29 30 31 32 32 32 32 32 31 31 32 32 32 31 31 30 30 29 29 27 26 26 26 26 26 25 24 24 24 25 26 26 25 25 26 28
0 2 4 5 7 7 7 7 3 2 2 3 4 6 5 4 5 4 5 6 6 8 10 10 11 11 9 7 6 4 4 5 4 5 8 11 13 15 17 18 19 21 22 23 23 24 24 24 25 26 26 27 28 30 31 32 32 33 33 32 32 32 32 32 32 31 30 30 30 29 27 27 26 27 27 27 27 27 25 25 26 27 27 27 27 28
2 3 6 10 11 9 9 9 6 4 4 5 6 8 8 7 7 8 10 10 7 8 7 7 9 10 8 7 6 3 2 2 3 3 4 7 9 12 15 17 19 20 21 21 22 22 23 23 23 24 24 25 26 26 27 29 30 31 32 32 33 33 33 33 32 32 32 31 30 30 29 28 27 26 26 26 27 27 27 27 26 27 28 28 28 28
3 4 7 9 11 10 9 8 5 4 4 5 6 7 8 8 11 13 14 12 9 9 9 8 11 15 14 8 4 2 1 2 4 3 3 4 5 8 11 14 16 19 19 19 20 20 20 21 22 23 23 23 24 24 25 26 27 28 30 31 32 32 32 33 32 32 32 32 31 31 30 29 28 27 26 26 25 26 27 27 27 27 27 28 29 30
2 3 4 5 6 7 7 8 6 5 6 7 7 7 9 12 15 15 15 14 13 15 16 16 19 20 13 4 4 3 2 4 4 2 2 1 2 5 7 10 11 13 14 16 17 18 19 20 21 22 23 23 23 23 24 24 25 27 28 29 31 31 32 32 31 31 32 31 31 31 30 30 29 28 28 27 26 26 26 27 27 28 27 27 27 29
2 3 3 3 4 6 7 8 8 7 8 9 9 10 13 16 17 16 16 16 16 17 17 17 19 15 5 3 4 4 3 3 4 4 5 4 2 3 5 8 10 11 12 14 16 17 18 19 20 21 22 23 23 23 22 23 24 24 26 27 29 31 32 32 32 32 31 31 31 31 31 31 31 30 29 28 27 27 27 27 27 27 28 28 27 27
3 3 4 4 5 6 7 10 9 8 9 11 11 14 19 19 17 15 15 15 14 14 15 14 13 7 2 3 1 3 3 2 4 5 7 8 6 4 5 9 12 12 12 14 16 17 18 19 20 21 22 22 23 23 23 24 24 24 25 26 27 29 30 31 32 33 33 32 32 32 32 32 32 32 31 30 29 28 28 28 28 28 28 28 28 28
2 3 3 4 5 6 8 8 5 6 8 11 11 14 18 18 16 15 15 15 12 8 9 10 6 2 3 2 1 2 3 3 5 6 9 9 9 9 9 10 14 14 13 15 16 16 18 19 20 21 22 22 23 23 24 25 26 26 26 26 27 28 29 30 31 32 34 34 34 34 33 33 33 33 32 32 31 30 29 29 28 28 29 28 28 28
5 6 6 4 4 7 9 5 4 5 11 11 7 6 9 11 12 13 11 10 7 3 2 2 1 3 3 4 3 4 4 4 6 8 10 12 13 14 13 13 16 16 16 17 18 19 20 20 21 21 22 22 23 23 24 25 26 27 28 28 28 29 29 30 30 31 33 34 34 35 35 35 35 35 35 34 33 33 32 31 30 29 29 29 29 29
8 9 6 3 3 5 4 3 6 11 10 6 3 1 3 3 4 6 7 6 5 3 3 4 3 4 4 6 7 8 9 8 9 10 11 13 15 15 14 14 16 18 19 20 21 22 22 22 23 23 23 23 24 24 25 25 26 27 27 28 29 30 30 31 31 32 33 33 34 35 35 36 37 37 37 37 36 36 35 34 33 32 31 31 30 30
9 7 4 3 3 2 1 3 9 8 4 6 7 3 1 1 2 2 4 5 5 3 4 4 3 3 4 7 8 10 12 11 11 15 16 15 15 15 13 13 15 17 19 21 22 23 24 24 24 25 26 26 26 26 26 26 27 28 28 28 28 29 30 31 32 33 33 34 34 35 35 36 37 38 39 39 39 39 38 37 36 35 34 33 33 32
8 6 3 3 4 3 2 6 6 6 8 10 8 3 2 2 3 3 2 4 4 5 4 4 4 4 5 9 13 13 10 7 8 15 18 14 14 16 14 13 15 17 18 20 21 23 24 24 24 26 27 28 28 28 28 28 28 29 29 29 29 29 30 31 32 33 34 35 35 36 36 37 38 39 40 40 40 40 40 40 40 39 37 36 35 35
8 7 5 4 5 3 3 4 4 5 7 6 4 4 2 2 3 4 2 2 4 7 6 4 4 7 6 9 13 11 5 3 3 11 18 13 12 16 16 16 17 17 18 20 22 23 24 24 25 26 28 29 31 31 30 30 30 30 31 32 30 30 31 31 32 33 35 35 36 36 37 37 39 40 41 42 42 42 42 42 42 42 41 39 38 37
5 6 6 4 4 4 4 4 5 6 6 4 4 3 3 4 4 3 1 4 1 8 10 8 7 9 8 11 13 7 2 2 4 11 22 20 14 16 19 21 22 21 21 22 23 25 27 26 28 29 30 32 33 32 32 33 33 33 34 34 33 32 32 31 31 32 34 35 36 36 37 37 38 40 41 42 43 44 44 44 44 44 43 43 42 41
2 2 4 4 5 7 6 5 4 4 3 4 5 4 4 5 3 2 5 5 5 9 12 12 12 13 13 15 12 5 5 6 8 16 27 26 19 18 20 23 25 25 25 26 26 27 28 29 30 32 33 34 34 34 35 35 36 37 38 38 37 37 35 32 31 33 33 34 35 36 36 37 38 39 40 42 43 45 45 46 46 46 46 46 45 44
1 0 3 4 6 9 9 6 4 4 4 4 6 9 9 5 3 2 6 3 9 12 12 12 16 17 16 16 12 8 12 17 19 25 30 29 27 25 24 25 27 28 29 30 29 29 30 31 32 33 35 35 35 36 37 38 39 41 41 41 42 42 40 38 37 38 37 37 37 37 37 37 38 39 40 41 43 45 46 46 47 48 49 49 47 47
1 1 2 3 4 5 6 5 4 4 4 4 6 9 8 4 1 5 3 2 5 11 12 12 15 17 18 19 18 18 21 25 27 29 30 30 33 33 31 30 29 30 32 32 32 31 30 32 34 36 37 37 37 37 38 39 41 43 43 43 44 44 43 42 42 43 43 43 42 41 41 40 40 41 41 42 43 45 47 47 48 49 50 50 50 50
3 1 2 4 4 2 3 4 5 5 2 3 6 4 3 4 3 5 9 14 18 20 18 17 18 20 21 22 23 23 25 27 29 30 30 32 34 34 34 33 32 33 34 34 34 33 32 34 36 38 40 40 39 39 40 40 42 44 44 45 45 44 44 44 45 46 47 48 48 47 46 45 45 44 44 44 44 46 48 49 50 50 50 50 52 52
3 4 4 4 3 3 4 4 5 3 0 1 3 3 6 10 13 19 20 21 25 28 25 21 22 24 23 22 23 24 26 29 30 30 32 33 34 33 34 33 34 35 35 35 35 34 34 37 39 41 42 43 42 42 42 42 43 45 46 47 46 45 45 46 47 49 51 51 51 51 50 49 49 49 48 48 48 48 50 51 52 52 52 52 52 53
4 6 6 5 4 3 4 7 8 5 8 15 14 15 20 25 30 32 28 24 25 29 28 24 26 27 24 22 24 25 27 29 30 31 33 34 34 35 35 34 33 33 33 35 36 37 37 39 41 43 45 46 46 46 45 45 45 47 49 49 48 47 48 49 50 52 53 54 54 54 54 54 54 53 52 51 51 51 51 52 53 54 55 54 54 54
7 9 5 3 5 4 7 15 17 13 18 26 29 29 30 31 33 33 30 26 28 32 32 28 27 26 24 24 25 26 28 30 31 32 33 33 33 34 33 33 32 32 34 36 38 40 41 41 43 45 47 49 50 49 48 48 48 50 51 51 50 50 50 51 52 54 55 56 57 57 57 58 58 57 56 56 55 54 54 53 54 55 55 55 55 54
9 12 8 5 7 7 8 13 14 13 19 26 28 30 31 31 32 32 31 31 33 34 31 27 24 23 23 24 25 26 28 29 28 29 30 30 31 32 32 32 34 35 38 40 41 42 43 44 46 47 49 52 53 52 50 50 51 51 52 52 52 51 51 52 54 56 58 60 60 60 61 61 61 61 61 60 58 57 57 56 55 54 54 55 55 54
5 6 6 7 9 9 11 15 18 19 23 26 27 29 30 32 34 34 32 32 31 28 25 23 22 22 22 22 22 23 26 26 24 24 26 28 30 32 34 36 38 40 42 44 44 44 45 47 48 49 51 53 54 53 53 53 53 53 53 52 51 51 52 55 57 58 60 62 63 63 63 63 63 63 63 62 61 60 59 58 57 55 55 55 54 52
4 3 4 5 7 10 12 15 17 17 18 23 28 29 28 29 30 29 27 25 23 22 23 23 22 21 21 21 21 22 24 25 23 24 26 30 33 35 37 39 41 43 45 46 46 46 47 49 50 51 52 54 55 55 55 56 57 56 53 51 51 51 53 57 59 60 62 63 64 64 64 63 62 62 62 62 62 61 60 59 57 56 57 57 55 53
5 5 4 3 6 9 10 11 12 9 8 15 23 23 21 21 23 23 23 22 20 21 22 22 23 22 21 21 21 22 24 26 27 27 30 33 36 37 39 40 42 44 46 46 47 49 49 50 50 50 52 55 55 55 57 58 60 59 55 51 51 51 53 56 58 60 63 64 63 63 62 61 61 60 59 59 60 60 61 61 58 55 55 57 56 53
11 11 9 6 8 12 16 21 20 11 9 18 25 23 20 20 19 19 20 20 20 21 21 22 24 24 23 22 21 22 24 27 28 29 32 35 37 38 38 40 42 44 46 47 48 50 50 51 51 50 52 55 56 56 58 61 62 62 58 54 52 52 53 54 55 58 62 62 61 59 57 56 57 57 56 56 55 55 55 57 58 57 55 54 53 52
Wind_Direction
171 159 158 200 216 216 217 210 222 249 307 323 251 260 263 271 272 260 266 268 223 276 271 259 272 280 279 278 277 278 281 278 269 267 271 276 278 279 281 282 283 284 289 297 302 309 314 316 320 319 314 308 300 295 290 286 282 278 275 270 266 262 258 253 250 248 245 242 240 239 239 238 238 238 237 237 237 237 237 236 236 235 234 234 234 234
164 190 213 220 222 218 224 230 247 278 316 287 256 276 269 249 271 267 269 281 238 247 263 248 273 280 279 279 272 271 273 266 261 264 271 275 278 280 279 280 283 286 293 303 313 319 327 334 337 332 326 317 308 301 293 289 286 282 276 271 267 263 258 254 251 249 247 245 244 243 243 242 240 239 238 238 238 237 237 236 236 235 234 234 233 233
189 221 234 233 234 260 20 63 92 241 252 257 249 282 282 252 278 274 262 293 350 224 275 287 282 279 277 270 259 252 250 259 267 268 269 271 274 276 277 280 286 294 304 317 327 333 348 1 1 353 344 332 317 307 297 291 287 281 276 271 267 262 258 255 254 252 251 250 249 248 247 245 243 242 241 240 240 239 237 237 235 234 234 233 233 233
226 236 238 237 227 211 266 84 91 291 255 230 226 267 276 260 279 273 261 317 342 244 274 298 289 283 272 262 258 254 249 258 268 269 267 265 264 268 273 280 292 306 317 325 338 355 14 23 23 20 14 2 346 325 307 298 290 283 278 273 268 264 260 257 256 255 254 252 250 248 247 246 246 245 245 243 242 240 239 238 236 235 234 233 233 232
236 230 225 215 188 195 231 229 156 265 262 229 210 228 261 259 249 252 276 334 328 286 299 317 300 294 267 255 277 283 260 253 261 267 265 260 259 267 274 282 300 320 328 334 356 24 34 34 34 31 27 21 12 357 330 301 287 279 275 271 266 262 259 258 257 256 255 252 249 247 245 244 243 243 242 242 241 239 238 237 236 235 234 234 233 232
254 248 207 134 149 174 200 231 210 216 251 267 218 213 239 254 253 257 288 346 350 313 340 10 323 302 25 85 281 298 324 276 257 252 254 264 281 281 281 298 329 340 347 2 27 40 39 36 34 30 27 25 21 14 1 330 296 279 270 266 263 261 259 258 257 255 254 252 250 247 245 243 242 242 241 241 240 239 238 238 238 237 236 235 234 233
256 260 232 146 133 132 162 238 221 191 232 285 237 209 224 242 251 259 279 331 307 257 293 61 8 284 287 228 253 263 336 281 258 244 257 299 312 288 296 340 5 11 29 48 48 42 37 32 28 25 23 22 20 18 14 4 338 304 284 272 265 263 263 263 260 258 255 252 250 249 248 248 248 247 248 247 246 244 243 242 241 240 238 236 235 234
206 341 47 93 109 124 165 240 216 168 182 264 234 190 201 224 233 230 220 224 239 280 313 95 145 273 284 257 251 194 173 252 262 264 285 304 294 291 320 18 35 46 54 53 45 37 31 28 25 22 22 21 20 18 15 15 9 347 317 294 280 270 267 266 265 262 260 257 255 253 252 252 252 253 253 252 251 250 247 244 242 241 240 238 236 235
151 153 168 136 112 163 200 221 184 159 183 252 199 143 174 204 204 167 164 204 266 350 311 254 148 254 280 273 20 83 193 251 268 273 283 283 293 307 353 54 53 57 58 47 37 29 25 25 24 22 22 21 21 19 15 15 16 12 356 329 308 290 276 270 268 266 264 262 261 259 257 256 256 255 253 253 252 251 249 247 244 242 241 239 237 236
188 175 185 151 136 211 218 220 176 166 194 222 119 90 74 64 65 92 132 135 48 316 252 212 167 241 280 280 86 73 258 261 262 271 276 270 303 353 46 58 55 61 54 41 32 27 24 23 24 23 21 19 17 17 15 13 14 16 14 3 345 322 298 282 272 268 267 266 264 263 261 260 259 257 254 253 252 251 250 248 247 245 243 241 238 237
239 101 127 175 205 210 170 129 187 173 168 125 105 66 43 39 40 51 31 91 59 286 227 192 184 185 283 292 133 186 235 218 239 300 302 300 348 68 67 45 55 60 43 32 29 26 23 22 23 21 19 18 16 15 14 11 10 12 15 15 8 354 331 309 291 277 270 267 266 266 264 263 262 260 257 255 254 252 251 250 249 248 246 244 241 239
224 142 203 226 219 187 112 78 350 82 113 104 92 64 37 343 12 27 351 51 171 262 238 199 187 179 234 263 332 276 261 221 228 309 310 306 309 345 41 46 59 52 33 27 26 23 21 19 19 17 16 15 13 13 13 11 10 8 8 11 12 7 353 334 316 300 286 275 269 267 267 266 264 262 262 260 258 257 255 254 252 250 249 247 244 241
282 211 235 258 216 181 135 110 339 15 60 107 111 118 148 308 343 347 309 82 220 254 277 239 184 210 241 257 295 278 277 270 223 233 252 272 289 308 16 57 58 41 29 28 27 25 22 17 17 17 16 15 13 12 12 10 9 7 4 4 7 8 0 345 328 315 303 289 280 273 270 269 266 264 263 263 261 261 260 259 257 254 252 250 247 244
293 262 197 129 248 189 166 179 233 241 169 162 157 157 168 198 242 262 254 256 267 272 309 315 186 268 282 280 249 247 269 294 251 239 263 274 286 309 32 61 49 36 27 29 32 27 21 19 20 20 18 16 13 10 8 6 6 5 2 359 359 3 360 348 333 320 309 299 290 281 275 271 268 267 266 265 264 264 263 262 261 261 259 257 254 252
257 286 210 180 220 172 180 197 170 137 161 184 165 138 164 178 195 224 223 237 261 275 306 302 191 232 263 287 251 237 261 291 291 290 295 293 286 305 65 54 41 35 31 34 37 30 26 25 23 21 20 18 14 9 4 1 1 3 3 359 357 358 358 350 334 321 313 306 297 288 281 276 272 269 267 267 267 267 266 265 264 264 264 263 262 260
216 266 245 217 147 152 180 195 128 114 162 204 123 113 222 206 178 225 237 205 203 289 285 251 228 235 242 284 282 266 272 288 295 308 340 344 23 84 62 45 40 38 38 41 39 36 34 31 28 25 24 21 19 15 8 2 359 359 2 2 359 358 358 353 340 326 317 308 300 293 287 282 277 273 269 268 268 268 269 270 269 267 266 266 264 263
229 265 262 25 79 180 187 177 142 161 195 160 126 188 225 175 145 235 272 137 100 264 252 204 252 278 293 292 294 313 55 357 357 16 36 50 69 65 45 43 46 43 45 46 43 40 36 33 32 29 27 24 22 19 14 9 3 359 1 4 3 1 359 358 351 337 322 311 302 297 290 284 280 277 273 271 269 269 270 271 271 270 268 267 266 264
232 267 247 163 220 233 190 161 125 174 159 137 179 216 200 137 138 148 262 336 224 246 247 222 253 274 285 286 323 50 74 36 13 5 5 29 42 37 35 46 48 46 48 46 42 39 35 34 34 33 32 30 28 25 22 18 12 5 3 4 7 6 3 2 360 350 332 315 305 299 293 289 285 282 278 275 271 269 269 270 271 270 269 269 270 269
215 264 266 189 200 217 118 134 289 277 178 159 200 231 125 180 228 154 171 238 240 247 257 225 240 255 253 254 277 286 269 267 14 7 15 25 27 25 31 39 40 42 43 39 39 37 35 35 34 34 34 33 33 32 29 26 20 13 7 5 8 9 8 4 0 359 350 331 315 307 302 299 297 293 289 283 278 273 270 270 271 270 270 270 270 269
159 242 268 346 181 168 77 162 208 228 242 83 5 312 114 177 215 202 173 169 233 255 260 232 231 234 230 246 269 278 278 20 21 17 26 36 37 31 33 36 37 41 42 39 40 39 38 37 34 33 33 32 32 31 29 26 23 22 17 10 7 7 8 6 2 1 359 352 339 327 320 315 307 302 296 290 284 279 275 274 272 271 271 270 270 270
87 244 247 307 2 207 188 205 190 188 197 159 204 242 225 198 223 277 229 177 223 251 259 257 248 236 228 248 270 288 28 45 35 48 52 49 49 41 38 41 40 42 44 42 40 38 37 36 32 31 29 27 27 26 26 25 23 23 21 16 13 7 4 5 4 1 359 358 354 346 340 331 314 301 295 291 287 284 282 280 278 277 275 272 271 271
182 247 237 233 253 226 225 222 191 190 193 187 199 209 218 223 238 272 249 207 210 237 245 257 258 248 242 284 296 340 56 53 45 66 67 49 49 45 41 44 43 42 42 40 37 35 32 29 27 27 25 23 22 21 21 21 20 20 19 18 17 12 8 5 4 2 359 357 355 351 347 339 326 310 299 295 293 291 291 289 287 286 283 279 276 275
168 161 238 239 237 240 251 246 188 185 196 210 219 207 214 211 195 233 248 234 227 242 240 256 263 246 214 267 301 10 62 59 44 52 58 44 41 43 42 42 41 39 37 34 31 28 25 23 19 14 11 10 11 12 13 14 15 16 16 16 15 15 14 11 7 5 2 358 355 353 349 343 335 324 314 306 300 296 294 292 290 288 286 284 283 280
133 139 235 247 256 277 279 278 331 94 112 241 245 213 206 218 215 235 254 249 241 248 249 258 263 242 208 259 355 64 72 62 48 48 50 39 34 37 39 38 35 33 30 27 25 23 19 16 12 7 4 2 2 4 6 7 8 8 8 8 9 10 11 10 8 6 2 360 356 353 350 346 340 333 324 316 307 300 295 290 287 285 285 285 285 284
351 200 217 245 266 294 288 285 326 29 122 225 238 228 221 242 261 279 290 272 247 239 240 254 260 248 250 341 75 81 73 60 53 51 51 46 37 36 36 35 32 27 24 21 18 17 15 13 12 11 10 8 6 4 3 2 3 3 4 3 2 3 4 4 4 4 2 359 356 353 351 349 345 340 333 325 315 307 301 295 290 287 286 286 286 286
341 274 259 259 249 246 260 262 245 223 248 231 274 280 268 234 245 271 276 260 252 235 233 249 263 259 265 313 50 72 78 74 57 49 54 52 44 40 38 35 31 27 23 18 14 13 11 11 11 9 8 7 5 4 2 1 1 0 1 1 0 0 0 0 0 0 0 359 356 355 353 351 349 346 341 334 327 318 309 301 295 291 289 288 287 287
120 266 254 256 258 257 272 278 290 346 283 253 285 297 300 276 250 259 256 245 259 262 248 247 259 265 269 286 320 10 70 96 85 58 57 54 48 44 39 34 31 28 25 22 19 15 12 10 8 5 4 2 360 359 357 356 357 357 357 358 358 358 357 357 357 356 356 356 356 355 354 353 352 350 346 342 337 331 324 315 305 296 291 288 286 285
189 258 248 250 259 260 270 279 291 309 274 257 275 278 279 283 272 260 256 256 273 280 262 253 270 278 279 279 284 310 5 84 102 92 75 63 54 46 35 27 22 20 20 20 18 16 13 11 8 5 4 1 358 356 352 351 350 350 351 353 354 354 354 354 354 353 353 353 353 353 354 353 351 348 346 344 341 338 334 329 321 309 298 290 285 283
180 266 262 264 274 273 281 291 296 298 280 272 276 270 270 272 262 256 258 262 268 267 269 284 287 282 281 276 242 219 259 141 127 111 101 83 60 45 33 23 16 11 10 10 10 9 9 8 6 5 3 2 0 357 354 351 348 346 346 346 347 348 349 349 349 349 349 349 349 349 349 349 349 348 345 342 340 340 339 336 332 325 313 301 291 286
186 261 267 273 286 284 284 291 297 301 294 286 278 274 275 269 263 264 268 269 264 262 268 276 273 272 275 252 160 152 164 164 157 157 168 129 39 35 25 16 11 3 359 359 360 0 2 2 0 359 359 359 358 356 354 351 349 347 344 343 344 344 345 344 344 344 345 345 346 346 344 343 343 344 344 342 340 339 338 338 337 336 331 321 306 295
292 285 327 358 303 282 279 283 289 297 295 291 288 281 273 267 266 269 271 270 266 265 268 266 264 266 265 129 142 145 142 175 196 219 238 245 286 359 359 357 354 348 346 348 349 351 354 355 355 354 354 354 352 352 350 347 345 344 342 341 341 341 341 341 342 342 342 342 342 342 341 340 339 339 340 340 339 338 336 335 334 335 336 334 326 313
312 304 346 351 292 272 280 287 297 314 308 293 283 273 266 264 262 260 259 261 262 267 271 269 268 264 169 116 141 151 150 222 240 251 258 248 244 274 314 332 338 337 338 341 342 344 346 348 349 349 348 347 346 344 342 340 339 338 337 337 337 336 336 336 337 338 338 338 339 338 338 338 337 338 338 337 336 335 334 333 331 331 331 332 333 329
260 284 304 296 280 278 283 288 325 354 311 282 267 258 258 260 261 257 258 260 260 261 266 267 267 230 165 146 140 178 189 232 257 283 291 277 264 265 279 308 326 328 329 333 334 335 339 341 342 341 340 340 338 337 336 333 332 332 332 333 333 331 331 332 332 333 334 335 336 336 336 335 335 335 336 336 335 333 332 331 329 329 329 327 328 330
242 260 262 252 258 273 281 310 16 309 275 271 266 241 243 253 258 260 261 258 249 228 234 253 139 127 158 169 183 214 223 246 276 290 300 297 284 273 276 298 321 326 325 329 332 333 335 335 333 332 331 331 329 329 329 327 326 326 327 327 328 328 328 328 329 329 330 331 332 333 334 334 334 333 333 334 334 332 331 329 327 326 326 324 324 324
250 252 250 230 234 268 300 349 297 269 258 269 295 241 230 238 233 252 262 247 233 202 112 101 120 146 178 198 213 229 240 264 282 279 286 293 282 270 272 291 315 324 325 328 330 330 330 328 326 326 324 324 323 322 322 321 321 321 322 323 324 324 325 325 325 326 326 326 327 329 331 332 333 333 332 332 331 330 330 328 326 324 323 321 321 320
238 240 241 226 224 264 21 221 251 270 295 291 282 259 202 115 142 222 271 247 218 177 128 142 197 205 204 225 246 255 257 271 281 276 280 283 265 251 253 276 305 318 321 324 325 323 324 323 320 320 319 318 317 316 316 317 316 316 317 319 320 320 321 321 321 321 322 322 323 324 326 328 329 329 330 330 330 329 328 327 325 324 323 320 318 317
222 225 223 233 235 231 219 228 257 315 315 288 276 253 157 157 167 167 251 254 214 176 152 168 215 234 230 246 263 268 269 284 289 283 286 276 243 235 240 263 294 309 313 318 318 315 316 316 314 314 314 313 312 312 313 313 312 312 312 313 315 315 315 315 316 316 316 317 318 319 321 323 324 324 325 326 326 326 326 325 324 324 323 320 317 315
213 215 206 230 245 218 222 260 281 292 278 262 261 264 239 216 197 146 119 286 220 192 189 175 213 234 226 242 257 255 261 301 283 285 294 283 242 235 243 262 285 298 305 312 314 312 312 311 309 309 309 309 310 310 310 309 307 307 307 308 310 309 309 311 312 311 311 312 314 315 317 319 320 320 320 321 321 322 322 321 321 321 321 319 316 314
194 213 204 219 250 233 233 252 248 258 264 225 208 238 227 218 208 128 23 319 193 196 209 201 222 243 230 239 248 226 192 274 245 279 296 294 267 248 253 268 282 289 296 306 309 311 312 309 307 307 306 306 308 308 307 305 304 304 303 304 305 303 304 306 306 305 305 307 309 311 312 315 317 317 318 318 318 318 318 317 317 317 317 316 315 313
88 207 211 211 236 241 242 249 247 255 255 208 204 209 188 178 137 65 310 291 183 204 223 210 218 243 244 243 244 193 176 227 246 281 296 295 281 266 264 275 284 286 290 298 303 306 307 306 304 303 303 303 304 305 304 303 302 302 301 302 302 300 301 303 301 299 299 301 303 305 307 310 311 313 314 315 316 316 315 314 314 313 312 312 312 311
41 204 232 222 230 238 240 249 260 248 227 213 201 184 169 137 80 261 270 236 184 215 247 236 231 250 256 245 235 214 232 256 273 288 294 289 278 272 273 281 289 288 288 292 296 299 301 301 300 299 298 299 300 301 300 300 299 298 299 299 299 298 301 303 301 300 300 300 300 300 302 304 306 308 310 311 312 313 312 311 311 310 309 309 309 308
252 61 287 240 229 242 242 247 271 274 253 216 178 166 156 128 190 221 244 337 243 250 276 270 257 270 273 259 250 249 260 277 288 291 292 287 280 276 275 280 287 288 288 288 289 292 296 298 297 296 296 296 297 297 297 296 295 295 296 296 295 297 300 301 299 300 301 300 300 300 300 301 302 304 306 307 309 309 308 308 308 307 307 306 305 305
205 184 268 229 205 229 242 240 254 270 268 149 139 133 145 165 207 284 315 316 303 299 302 295 287 291 285 271 267 268 276 287 293 295 297 294 287 281 277 279 285 287 287 285 284 288 294 296 295 295 295 295 296 295 295 295 294 294 293 293 294 296 298 297 296 297 298 298 298 299 299 300 300 301 302 303 305 306 306 306 306 305 305 304 303 302
210 198 236 232 214 219 223 228 218 201 4 53 153 210 256 260 285 304 306 303 304 306 305 302 301 301 293 281 277 280 285 290 295 299 301 298 294 287 281 280 283 283 282 280 282 288 295 296 296 296 295 295 295 296 296 295 295 294 294 294 296 296 295 294 294 295 295 295 296 296 297 298 298 299 300 300 302 303 303 303 303 303 303 302 302 301
208 201 223 243 244 202 207 249 257 256 295 296 281 270 278 285 292 298 298 296 299 301 300 300 300 300 298 291 285 285 289 292 297 300 299 297 294 288 281 278 278 279 280 281 284 290 296 298 297 296 295 294 295 296 297 297 297 296 296 297 298 296 294 294 293 293 293 293 294 295 296 296 296 297 297 298 299 299 299 300 300 300 300 301 300 298
231 228 231 259 275 266 252 261 268 275 281 282 280 279 281 285 288 291 292 292 293 295 297 298 297 299 301 297 292 289 292 295 297 297 294 291 287 282 278 277 278 281 284 287 290 296 299 299 298 297 297 296 296 297 298 298 297 296 297 297 297 296 295 295 294 293 293 294 294 295 295 295 295 295 295 295 296 296 296 297 297 297 298 298 297 296
248 238 233 248 266 269 265 261 261 264 267 271 275 278 278 280 283 285 287 289 291 295 297 298 299 299 299 297 294 292 294 296 294 291 288 285 282 280 281 283 286 288 291 294 298 302 303 302 301 300 299 298 298 298 298 297 296 295 295 296 295 295 295 294 294 294 294 294 294 294 294 294 294 294 294 294 294 294 294 294 294 294 294 294 293 292
246 226 218 235 246 244 254 263 265 267 268 270 271 272 275 279 282 284 287 288 290 292 294 295 297 297 297 297 296 294 295 294 291 289 288 286 285 286 288 292 296 297 298 301 304 305 304 303 301 300 299 298 297 298 296 295 294 294 294 295 295 294 294 293 293 293 293 292 293 292 292 293 293 292 293 292 292 293 292 292 292 291 290 290 289 287
216 201 192 216 249 254 256 265 270 273 273 269 268 270 274 278 282 285 287 287 285 286 287 289 294 297 298 299 297 296 295 293 293 296 295 292 291 294 296 299 302 302 302 304 304 304 302 301 299 298 297 296 296 296 295 294 294 293 294 294 294 293 293 292 292 292 291 290 290 290 290 291 291 292 292 292 291 291 290 289 289 288 287 286 285 284
202 240 229 209 255 264 259 260 263 265 269 270 273 278 281 280 280 281 282 283 284 287 289 291 294 296 297 297 298 299 299 298 300 302 300 298 298 300 302 304 304 304 304 304 302 301 300 299 298 298 297 296 296 296 294 293 293 292 293 293 293 293 292 291 291 291 290 289 290 290 291 291 291 291 291 291 290 290 289 287 286 285 285 285 284 282
220 235 235 227 246 258 264 269 268 261 262 274 282 287 285 280 279 277 278 283 287 290 294 297 298 300 301 301 302 303 302 301 303 304 302 301 302 303 305 305 304 304 304 304 303 302 301 300 300 299 297 296 296 295 294 293 292 292 293 293 293 293 292 291 291 290 290 290 290 291 291 292 291 290 290 290 290 290 290 289 287 284 283 283 282 281